DECAYED

STARLINK-1879, 47164 (Decayed)

Orbit data source: Space-Track

STARLINK-1879, 47164 was a payload satellite owned by SpaceX/Seattle (US) in LEO that was launched on Wed, 25 Nov 2020 UTC via an FALCON 9 launch vehicle from the Air Force Eastern Test Range (AFETR). Payload-class satellites include a variety of spacecraft equipped with specific instruments for various scientific and technological missions. These include communications satellites like Starlink; space stations such as the ISS; scientific satellites like the Hubble; Earth observation satellites from companies like Planet Labs, Umbra, and HawkEye 360; GPS; miniature CubeSats for education and research; and military/defense satellites.

Not visible in the next 10 days
Identifier
47164, 2020-088AU
Orbit
Decayed
Country
Flag of USUS
Related business
Manufacturer
SpaceX/Seattle
Mission
Decayed Commercial Communications
Bus & Motor
STARLINK, Unknown motor
Mass
260 kg wet, ~248 kg dry
Launch date (UTC)
2020-11-25 (6 years ago)
Launch vehicle
FALCON 9
Launch site
Air Force Eastern Test Range (AFETR)
Object type
Payload
Rocket body
Debris
Shape & HBR
Box + 1 Pan, 10.1 m
Radar Cross Section
13.562 m², Large (>1 m²)

Expand to show TLE details & history
Last TLE update: 1 year ago

TLE from 1 year ago
0 STARLINK-1879
1 47164U 20088AU  25095.65589192  .12003722  12310-4  94986-3 0  9993
2 47164  53.0094 303.5280 0008880 257.8009 213.4312 16.39176706242191
Epoch: 2025-04-05T15:44Z
TLE epoch observation values (Epoch: 2025-04-05T15:44:29.061Z)
Latitude
48.2951°
Longitude
-3.98065°
Altitude
178.219 km
Speed
7.803 km/s
True Right ascension
04h 25m 20s
True Declination
48° 06' 33"
Sunlit
Object was in daylight at epoch
Visualization orbit readout
Latitude
Unknown
Longitude
Unknown
Altitude
Unknown
Speed
Unknown
Apparent Right ascension
Unknown
Apparent Declination
Unknown
Sunlit
N/A
Visualization observer readout
Local Sidereal Time
21:31:42
Azimuth
Unknown
Elevation
Unknown
Doppler factor
Unknown
Orbital elements
Apogee altitude
174.1 km
Perigee altitude
162.474 km
Semi-major axis
6,546.424 km
Eccentricity
0.00089
Inclination
53.0094°
RAAN
303.528°
Arg. of periapsis
257.8009°
True anomaly
213.37519°
Mean anomaly
213.4312°
Eccentric anomaly
213.40319°
Mean motion
4.09767 °/min
Orbital period
87.85 mins
BSTAR
0.00094986
Loading maneuver chart data...
Computing Atmospheric mass density...

Documentation

Showing up to 5 results
|